Location: Azul
(36.7830°S, 59.8500°W)
Time: 04:25:13
(UTC-03:00)

ISS - Pass Details

Date: 29 April 2017
Orbit: 401 x 409 km, 51.6° (Epoch: 29 April)

Event Time Altitude Azimuth Distance (km) Brightness Sun altitude
Rises 18:43:20 0° 332° (NNW) 2,321 0.7 -6.2°
Reaches altitude 10° 18:45:31 10° 342° (NNW) 1,470 -0.5 -6.6°
Maximum altitude 18:48:31 32° 47° (NE) 729 -2.8 -7.2°
Drops below altitude 10° 18:51:33 10° 112° (ESE) 1,492 -1.6 -7.8°
Enters shadow 18:51:34 10° 112° (ESE) 1,495 -1.6 -7.8°
